Location: Ohmer (historical)
(38.0096°N, 122.0227°W)
Time: 06:58:54
(UTC+00:00)

Cosmos 1697 Rocket - Pass Details

Date: 14 February 2026
Orbit: 830 x 844 km, 71.0° (Epoch: 9 March)

Event Time Altitude Azimuth Distance (km) Brightness Sun altitude
Exits shadow 12:59:17 30° 335° (NNW) 1,480 3.7 -24.2°
Drops below altitude 10° 13:02:45 10° 6° (N) 2,465 5.2 -23.5°
Sets 13:05:25 0° 15° (NNE) 3,405 6.1 -23.0°
